FW8134 Weather Reports


Display with metric or nautical units.
time (UTC)temp
F
wind
direction
speed
MPH
gust
MPH
rain 1hr
in
rain 24hr
in
rain mn
in
humidity
%
barometer
mb
20260906011017 51 0.0 0.0 0.00 0.00 0.00 94 1007.3
20260906010019 51 0.0 0.0 0.00 0.00 0.00 94 1007.3
20260906005015 51 0.0 0.0 0.00 0.00 0.00 94 1007.4
20260906004016 51 0.0 0.0 0.00 0.00 0.00 93 1007.5
20260906003017 51 0.0 0.0 0.00 0.00 0.00 93 1007.6
20260906002019 52 0.0 0.0 0.00 0.00 0.00 93 1007.7
20260906001015 52 0.0 0.0 0.00 0.00 0.00 93 1007.6
20260906000016 52 0.0 0.0 0.00 0.00 0.00 93 1007.6
20260905235017 52 0.0 0.0 0.00 0.00 0.00 92 1007.7
20260905234019 52 0.0 0.0 0.00 0.00 0.00 92 1007.8
20260905233015 52 0.0 0.0 0.00 0.00 0.00 92 1007.7
20260905232016 52 0.0 0.0 0.00 0.00 0.00 92 1007.7
20260905231018 53 0.0 0.0 0.00 0.00 0.00 91 1007.6
20260905230019 53 0.0 0.0 0.00 0.00 0.00 91 1007.7
20260905225015 53 0.0 0.0 0.00 0.00 0.00 91 1007.7
20260905224016 53 0.0 0.0 0.00 0.00 0.00 91 1007.6
20260905223017 54 0.0 0.0 0.00 0.00 0.00 90 1007.6
20260905222018 54 0.0 0.0 0.00 0.00 0.00 90 1007.7
20260905221020 54 0.0 0.0 0.00 0.00 0.00 90 1007.5
20260905220015 54 0.0 0.0 0.00 0.00 0.00 89 1007.6
20260905215017 54 0.0 0.0 0.00 0.00 0.00 89 1007.5
20260905214018 55 0.0 0.0 0.00 0.00 0.00 89 1007.5
20260905213019 55 0.0 0.0 0.00 0.02 0.00 88 1007.5
20260905212017 55 0.0 0.0 0.00 0.03 0.00 88 1007.5
20260905211017 55 0.0 0.0 0.00 0.03 0.00 87 1007.5
20260905210018 56 0.0 0.0 0.00 0.03 0.00 86 1007.4
20260905205019 56 0.0 0.0 0.00 0.03 0.00 86 1007.3
20260905204015 56 0.0 0.0 0.00 0.03 0.00 85 1007.3
20260905203016 57 0.0 0.0 0.00 0.03 0.00 85 1007.2
20260905202018 57 0.0 0.0 0.00 0.03 0.00 84 1007.3
20260905201019 58 0.0 0.0 0.00 0.03 0.00 83 1007.4
20260905200040 58 0.0 0.0 0.00 0.03 0.00 83 1007.4
20260905195016 59 0.0 0.0 0.00 0.03 0.00 82 1007.4
20260905194017 59 0.0 0.0 0.00 0.03 0.00 81 1007.2
20260905193019 60 0.0 0.0 0.00 0.03 0.00 79 1007.1
20260905192020 61 0.0 0.0 0.00 0.03 0.00 78 1007.2
20260905191016 62 0.0 0.0 0.00 0.03 0.00 77 1007.2
20260905190017 63 0.0 0.0 0.00 0.03 0.00 74 1007.2
20260905185018 64 0.0 0.0 0.00 0.03 0.00 73 1007.0
20260905184020 65 0.0 0.0 0.00 0.03 0.00 71 1006.9
20260905183016 66 0.0 0.0 0.00 0.03 0.00 69 1006.8
20260905182037 68 0.0 0.0 0.00 0.03 0.00 67 1006.7
20260905181018 69 0.0 0.0 0.00 0.03 0.00 63 1006.8
20260905180020 70 0.0 1.0 0.00 0.03 0.00 57 1006.8
20260905175016 71 7 0.0 3.0 0.00 0.03 0.00 56 1006.8
20260905174017 72 304 1.0 2.0 0.00 0.03 0.00 53 1006.7
20260905173018 73 355 0.0 2.0 0.00 0.03 0.00 52 1006.7
20260905172019 73 6 1.0 3.0 0.00 0.03 0.00 50 1006.7
20260905171035 74 313 1.0 3.0 0.00 0.03 0.00 50 1006.8
20260905170056 74 2 2.0 7.0 0.00 0.03 0.00 49 1006.8
20260905165017 74 16 2.0 5.0 0.00 0.03 0.00 49 1006.8
20260905164019 75 40 2.0 7.0 0.00 0.03 0.00 49 1006.7
20260905163020 75 338 1.0 4.0 0.00 0.03 0.00 48 1006.6
20260905162036 76 346 2.0 4.0 0.00 0.03 0.00 47 1006.7
20260905161017 77 236 1.0 4.0 0.00 0.03 0.00 44 1006.7
20260905160018 76 6 1.0 3.0 0.00 0.03 0.00 47 1006.7
20260905155019 75 15 2.0 4.0 0.00 0.03 0.00 48 1006.8
20260905154016 76 351 2.0 4.0 0.00 0.03 0.00 47 1006.8
20260905153017 76 295 1.0 3.0 0.00 0.03 0.00 48 1006.7
20260905152018 76 25 2.0 5.0 0.00 0.03 0.00 48 1006.8
20260905151019 76 229 2.0 4.0 0.00 0.03 0.00 46 1006.8
20260905150015 75 315 1.0 5.0 0.00 0.03 0.00 51 1006.7
20260905145016 74 35 2.0 5.0 0.00 0.03 0.00 51 1006.9
20260905144037 74 40 2.0 7.0 0.00 0.03 0.00 51 1007.0
20260905143019 74 352 2.0 5.0 0.00 0.03 0.00 51 1007.0
20260905142040 74 35 4.0 10.0 0.00 0.03 0.00 51 1006.9
20260905141016 74 238 2.0 5.0 0.00 0.03 0.00 50 1006.9
20260905140017 75 41 3.0 6.0 0.00 0.03 0.00 48 1007.1
20260905135038 75 342 1.0 3.0 0.00 0.03 0.00 49 1007.1
20260905134020 75 227 2.0 6.0 0.00 0.03 0.00 49 1007.3
20260905133020 75 36 2.0 5.0 0.00 0.03 0.00 51 1007.2
20260905132017 74 220 2.0 5.0 0.00 0.03 0.00 52 1007.2
20260905131018 75 233 2.0 4.0 0.00 0.03 0.00 53 1007.3
20260905130019 74 330 1.0 4.0 0.00 0.03 0.00 53 1007.3
20260905125020 73 214 2.0 4.0 0.00 0.03 0.00 53 1007.4
20260905124017 73 343 2.0 6.0 0.00 0.03 0.00 53 1007.4
20260905123018 73 167 2.0 5.0 0.00 0.03 0.00 54 1007.4
20260905122019 73 319 2.0 6.0 0.00 0.03 0.00 57 1007.6
20260905121040 72 29 1.0 5.0 0.00 0.03 0.00 57 1007.5
20260905120016 71 167 2.0 4.0 0.00 0.03 0.00 57 1007.6
20260905115017 71 323 2.0 9.0 0.00 0.03 0.00 58 1007.5
20260905114019 71 357 3.0 7.0 0.00 0.03 0.00 61 1007.3
20260905113020 70 39 3.0 7.0 0.00 0.03 0.00 61 1007.4
20260905112016 71 353 2.0 5.0 0.00 0.03 0.00 61 1007.5
20260905111017 69 37 2.0 7.0 0.00 0.03 0.00 62 1007.5
20260905110018 69 33 2.0 5.0 0.00 0.03 0.00 63 1007.5
20260905105019 69 20 3.0 8.0 0.00 0.03 0.00 63 1007.6
20260905104016 68 288 2.0 7.0 0.00 0.03 0.00 66 1007.6
20260905103037 68 35 1.0 5.0 0.00 0.03 0.00 67 1007.6
20260905102038 67 353 3.0 7.0 0.00 0.03 0.00 68 1007.6
20260905101019 67 13 3.0 9.0 0.00 0.03 0.00 69 1007.6
20260905100015 67 323 3.0 8.0 0.00 0.03 0.00 70 1007.6
20260905095016 67 347 2.0 6.0 0.00 0.03 0.00 71 1007.6
20260905094017 67 294 2.0 6.0 0.00 0.03 0.00 71 1007.5
20260905093018 66 75 1.0 10.0 0.00 0.03 0.00 74 1007.4
20260905092019 66 334 3.0 10.0 0.00 0.03 0.00 74 1007.3
20260905091035 66 335 3.0 7.0 0.00 0.03 0.00 75 1007.3
20260905090036 65 5 3.0 8.0 0.00 0.03 0.00 76 1007.2
20260905085037 65 36 3.0 8.0 0.00 0.03 0.00 75 1007.1
20260905084018 64 2 3.0 6.0 0.00 0.03 0.00 77 1007.0
20260905083019 64 294 2.0 9.0 0.00 0.03 0.00 79 1007.0
20260905082016 64 30 4.0 9.0 0.00 0.03 0.00 79 1006.9
20260905081017 63 24 5.0 12.0 0.00 0.03 0.00 80 1006.8
20260905080018 63 7 3.0 6.0 0.00 0.03 0.00 82 1006.7
20260905075019 63 299 1.0 4.0 0.00 0.03 0.00 84 1006.6
20260905074020 63 10 2.0 5.0 0.00 0.03 0.00 86 1006.4
20260905073016 63 333 0.0 3.0 0.00 0.03 0.00 89 1006.4
20260905072017 62 339 0.0 4.0 0.00 0.03 0.00 90 1006.4
20260905071018 62 255 1.0 5.0 0.00 0.03 0.00 92 1006.3
20260905070019 61 195 0.0 2.0 0.00 0.03 0.00 94 1006.3
20260905065016 60 295 1.0 4.0 0.00 0.03 0.00 95 1006.1
20260905064017 59 238 1.0 4.0 0.00 0.03 0.00 95 1006.0
20260905063018 59 226 1.0 3.0 0.00 0.03 0.00 96 1006.0
20260905062019 58 0.0 0.0 0.00 0.03 0.00 96 1005.9
20260905061020 58 0.0 0.0 0.00 0.03 0.00 96 1005.7
20260905060017 57 0.0 0.0 0.00 0.03 0.00 96 1005.6
20260905055038 57 0.0 0.0 0.00 0.03 0.00 95 1005.5
20260905054019 57 0.0 0.0 0.00 0.03 0.00 95 1005.3
20260905053020 57 0.0 0.0 0.00 0.03 0.00 95 1005.2
20260905052037 58 0.0 0.0 0.00 0.03 0.00 95 1005.1
20260905051018 58 0.0 0.0 0.00 0.03 0.00 95 1005.1
20260905050019 58 0.0 0.0 0.00 0.03 0.00 94 1005.0
20260905045020 59 0.0 0.0 0.00 0.03 0.00 94 1004.9
20260905044016 59 0.0 0.0 0.00 0.03 0.00 94 1004.9
20260905043017 60 0.0 0.0 0.00 0.03 0.00 94 1004.7
20260905042019 60 0.0 0.0 0.00 0.03 0.00 94 1004.7
20260905041040 60 0.0 0.0 0.00 0.03 0.00 94 1004.7
20260905040016 60 0.0 0.0 0.00 0.03 0.00 94 1004.6
20260905035017 60 0.0 0.0 0.00 0.03 0.00 93 1004.6
20260905034018 60 0.0 0.0 0.00 0.03 0.00 93 1004.5
20260905033020 60 0.0 0.0 0.00 0.03 0.00 93 1004.5
20260905032016 60 0.0 0.0 0.00 0.03 0.00 93 1004.5
20260905031017 60 0.0 0.0 0.00 0.03 0.00 93 1004.4
20260905030018 60 0.0 0.0 0.00 0.03 0.00 93 1004.2
20260905025019 60 0.0 0.0 0.00 0.03 0.00 93 1004.2
20260905024015 61 0.0 0.0 0.00 0.03 0.00 93 1004.2
20260905023017 61 0.0 0.0 0.00 0.03 0.00 94 1004.0
20260905022018 61 205 0.0 2.0 0.00 0.03 0.00 94 1004.0
20260905021019 61 221 0.0 1.0 0.00 0.03 0.00 94 1004.0
20260905020015 61 253 0.0 3.0 0.00 0.03 0.00 95 1004.0
20260905015037 62 257 1.0 3.0 0.00 0.03 0.00 95 1003.8
20260905014018 62 313 1.0 4.0 0.00 0.03 0.00 95 1003.7
20260905013019 62 213 0.0 2.0 0.00 0.03 0.00 96 1003.5
20260905012020 63 288 0.0 2.0 0.00 0.03 0.00 96 1003.5